Time,TemperatureF,DewpointF,PressureIn,WindDirection,WindDirectionDegrees,WindSpeedMPH,WindSpeedGustMPH,Humidity,HourlyPrecipIn,Conditions,Clouds,dailyrainin,SoftwareType,DateUTC
2013-01-24 08:40:00,54.7,53.9,30.28,WNW,287,0.0,0.0,97,0.00,,,0.00,Wunderground v.1.15,2013-01-24 14:40:00,
2013-01-24 08:45:00,55.0,54.2,30.28,West,265,0.0,0.0,97,0.00,,,0.00,Wunderground v.1.15,2013-01-24 14:45:00,
2013-01-24 08:50:00,55.4,54.6,30.28,West,268,0.0,0.0,97,0.00,,,0.00,Wunderground v.1.15,2013-01-24 14:50:00,
2013-01-24 08:55:00,56.0,55.2,30.28,West,270,0.0,0.0,97,0.00,,,0.00,Wunderground v.1.15,2013-01-24 14:55:00,
2013-01-24 09:00:00,56.6,55.5,30.29,WSW,248,0.0,0.0,96,0.00,,,0.00,Wunderground v.1.15,2013-01-24 15:00:00,
2013-01-24 09:10:00,57.6,56.2,30.29,WSW,239,0.0,0.0,95,0.00,,,0.00,Wunderground v.1.15,2013-01-24 15:10:00,
2013-01-24 09:15:00,58.1,55.8,30.29,WSW,247,0.0,0.0,92,0.00,,,0.00,Wunderground v.1.15,2013-01-24 15:15:00,
2013-01-24 09:20:00,58.6,55.4,30.29,SW,236,0.0,0.0,89,0.00,,,0.00,Wunderground v.1.15,2013-01-24 15:20:00,
2013-01-24 09:35:00,60.7,54.8,30.29,West,261,0.0,0.0,81,0.00,,,0.00,Wunderground v.1.15,2013-01-24 15:35:00,
2013-01-24 09:45:00,62.3,54.3,30.29,SW,229,0.0,0.0,75,0.00,,,0.00,Wunderground v.1.15,2013-01-24 15:45:00,
2013-01-24 09:54:00,63.2,54.0,30.29,West,261,0.0,0.0,72,0.00,,,0.00,Wunderground v.1.15,2013-01-24 15:54:00,
2013-01-24 10:00:00,63.5,54.3,30.29,WNW,296,0.0,0.0,72,0.00,,,0.00,Wunderground v.1.15,2013-01-24 16:00:00,
2013-01-24 10:10:00,64.3,53.9,30.29,NW,305,0.0,0.0,69,0.00,,,0.00,Wunderground v.1.15,2013-01-24 16:10:00,
2013-01-24 10:15:00,64.5,54.1,30.29,WNW,287,0.0,0.0,69,0.00,,,0.00,Wunderground v.1.15,2013-01-24 16:15:00,
2013-01-24 10:25:00,64.5,54.1,30.29,West,267,0.0,0.0,69,0.00,,,0.00,Wunderground v.1.15,2013-01-24 16:25:00,
2013-01-24 10:34:00,66.0,54.7,30.28,WSW,256,0.0,0.0,67,0.00,,,0.00,Wunderground v.1.15,2013-01-24 16:34:00,
2013-01-24 10:39:00,66.4,54.7,30.28,SSW,210,0.0,1.0,66,0.00,,,0.00,Wunderground v.1.15,2013-01-24 16:39:00,
2013-01-24 10:50:00,66.8,54.7,30.28,SSW,195,0.0,0.0,65,0.00,,,0.00,Wunderground v.1.15,2013-01-24 16:50:00,
2013-01-24 10:55:00,67.1,54.9,30.28,WNW,282,0.0,0.0,65,0.00,,,0.00,Wunderground v.1.15,2013-01-24 16:55:00,
2013-01-24 11:00:00,67.6,55.0,30.27,West,271,0.0,0.0,64,0.00,,,0.00,Wunderground v.1.15,2013-01-24 17:00:00,
2013-01-24 11:09:00,68.4,55.3,30.27,NW,304,0.0,0.0,63,0.00,,,0.00,Wunderground v.1.15,2013-01-24 17:09:00,
2013-01-24 11:15:00,68.8,55.2,30.26,West,261,0.0,0.0,62,0.00,,,0.00,Wunderground v.1.15,2013-01-24 17:15:00,
2013-01-24 11:25:00,69.3,55.7,30.26,West,277,0.0,0.0,62,0.00,,,0.00,Wunderground v.1.15,2013-01-24 17:25:00,
2013-01-24 11:30:00,69.6,55.6,30.26,WNW,282,0.0,0.0,61,0.00,,,0.00,Wunderground v.1.15,2013-01-24 17:30:00,
2013-01-24 11:39:00,69.4,55.8,30.26,West,281,0.0,1.0,62,0.00,,,0.00,Wunderground v.1.15,2013-01-24 17:39:00,
2013-01-24 11:45:00,68.9,55.8,30.25,West,260,0.0,1.0,63,0.00,,,0.00,Wunderground v.1.15,2013-01-24 17:45:00,
2013-01-24 11:54:00,70.3,56.2,30.25,NNW,337,0.0,0.0,61,0.00,,,0.00,Wunderground v.1.15,2013-01-24 17:54:00,
2013-01-24 12:04:00,69.9,55.4,30.24,West,280,0.0,0.0,60,0.00,,,0.00,Wunderground v.1.15,2013-01-24 18:04:00,
2013-01-24 12:09:00,69.6,55.6,30.24,WNW,291,0.0,0.0,61,0.00,,,0.00,Wunderground v.1.15,2013-01-24 18:09:00,
2013-01-24 12:15:00,70.6,56.0,30.23,West,270,0.0,0.0,60,0.00,,,0.00,Wunderground v.1.15,2013-01-24 18:15:00,
2013-01-24 12:24:00,71.6,56.0,30.23,West,277,0.0,0.0,58,0.00,,,0.00,Wunderground v.1.15,2013-01-24 18:24:00,
2013-01-24 12:30:00,71.5,55.5,30.22,WNW,298,0.0,0.0,57,0.00,,,0.00,Wunderground v.1.15,2013-01-24 18:30:00,
2013-01-24 12:39:00,70.4,55.4,30.22,West,281,0.0,0.0,59,0.00,,,0.00,Wunderground v.1.15,2013-01-24 18:39:00,
2013-01-24 12:45:00,70.4,55.8,30.21,NW,315,0.0,0.0,60,0.00,,,0.00,Wunderground v.1.15,2013-01-24 18:45:00,
2013-01-24 12:54:00,71.6,55.1,30.21,NW,325,0.0,0.0,56,0.00,,,0.00,Wunderground v.1.15,2013-01-24 18:54:00,
2013-01-24 13:00:00,72.1,56.0,30.21,West,275,0.0,0.0,57,0.00,,,0.00,Wunderground v.1.15,2013-01-24 19:00:00,
2013-01-24 13:09:00,72.5,55.4,30.21,NW,316,0.0,0.0,55,0.00,,,0.00,Wunderground v.1.15,2013-01-24 19:09:00,
2013-01-24 13:15:00,72.5,55.4,30.20,NNW,344,0.0,0.0,55,0.00,,,0.00,Wunderground v.1.15,2013-01-24 19:15:00,
2013-01-24 13:24:00,71.3,54.3,30.20,NNW,333,0.0,0.0,55,0.00,,,0.00,Wunderground v.1.15,2013-01-24 19:24:00,
2013-01-24 13:30:00,70.9,53.9,30.19,WNW,287,0.0,0.0,55,0.00,,,0.00,Wunderground v.1.15,2013-01-24 19:30:00,
2013-01-24 13:39:00,70.3,54.8,30.19,NW,313,0.0,0.0,58,0.00,,,0.00,Wunderground v.1.15,2013-01-24 19:39:00,
2013-01-24 13:45:00,70.6,55.1,30.19,NW,305,0.0,0.0,58,0.00,,,0.00,Wunderground v.1.15,2013-01-24 19:45:00,
2013-01-24 13:54:00,71.6,55.1,30.19,West,272,0.0,0.0,56,0.00,,,0.00,Wunderground v.1.15,2013-01-24 19:54:00,
2013-01-24 14:00:00,72.1,55.0,30.18,West,268,0.0,0.0,55,0.00,,,0.00,Wunderground v.1.15,2013-01-24 20:00:00,
2013-01-24 14:09:00,72.7,55.6,30.18,West,264,0.0,0.0,55,0.00,,,0.00,Wunderground v.1.15,2013-01-24 20:09:00,
2013-01-24 14:15:00,72.8,55.2,30.17,West,267,0.0,0.0,54,0.00,,,0.00,Wunderground v.1.15,2013-01-24 20:15:00,
2013-01-24 14:24:00,73.9,55.7,30.17,SW,229,0.0,0.0,53,0.00,,,0.00,Wunderground v.1.15,2013-01-24 20:24:00,
2013-01-24 14:35:00,73.0,56.4,30.17,SW,229,0.0,0.0,56,0.00,,,0.00,Wunderground v.1.15,2013-01-24 20:35:00,
2013-01-24 14:50:00,71.8,56.7,30.17,SW,226,0.0,0.0,59,0.00,,,0.00,Wunderground v.1.15,2013-01-24 20:50:00,
2013-01-24 15:00:00,71.8,56.2,30.17,South,185,0.0,0.0,58,0.00,,,0.00,Wunderground v.1.15,2013-01-24 21:00:00,
2013-01-24 15:09:00,71.1,56.0,30.17,WSW,241,0.0,0.0,59,0.00,,,0.00,Wunderground v.1.15,2013-01-24 21:09:00,
2013-01-24 15:15:00,70.6,56.0,30.16,SW,233,0.0,0.0,60,0.00,,,0.00,Wunderground v.1.15,2013-01-24 21:15:00,
2013-01-24 15:24:00,70.1,56.0,30.16,SW,232,0.0,0.0,61,0.00,,,0.00,Wunderground v.1.15,2013-01-24 21:24:00,
2013-01-24 15:30:00,69.6,56.0,30.16,SW,223,0.0,0.0,62,0.00,,,0.00,Wunderground v.1.15,2013-01-24 21:30:00,
2013-01-24 15:39:00,69.1,56.0,30.16,WSW,257,0.0,0.0,63,0.00,,,0.00,Wunderground v.1.15,2013-01-24 21:39:00,
2013-01-24 15:45:00,68.8,56.1,30.17,West,264,0.0,1.0,64,0.00,,,0.00,Wunderground v.1.15,2013-01-24 21:45:00,
2013-01-24 15:54:00,69.1,56.0,30.17,SW,229,0.0,0.0,63,0.00,,,0.00,Wunderground v.1.15,2013-01-24 21:54:00,
2013-01-24 16:00:00,69.3,55.7,30.16,WSW,247,0.0,0.0,62,0.00,,,0.00,Wunderground v.1.15,2013-01-24 22:00:00,
2013-01-24 16:09:00,68.9,55.8,30.16,WSW,254,0.0,0.0,63,0.00,,,0.00,Wunderground v.1.15,2013-01-24 22:09:00,
2013-01-24 16:15:00,69.1,56.0,30.17,South,189,0.0,0.0,63,0.00,,,0.00,Wunderground v.1.15,2013-01-24 22:15:00,
2013-01-24 16:24:00,68.8,55.7,30.17,SW,224,0.0,1.0,63,0.00,,,0.00,Wunderground v.1.15,2013-01-24 22:24:00,
2013-01-24 16:34:00,67.6,55.4,30.17,WSW,240,0.0,1.0,65,0.00,,,0.00,Wunderground v.1.15,2013-01-24 22:34:00,
2013-01-24 16:40:00,66.9,55.6,30.17,SSW,206,0.0,1.0,67,0.00,,,0.00,Wunderground v.1.15,2013-01-24 22:40:00,
2013-01-24 16:49:00,66.1,55.2,30.17,WSW,246,0.0,0.0,68,0.00,,,0.00,Wunderground v.1.15,2013-01-24 22:49:00,
2013-01-24 16:54:00,65.8,54.9,30.17,SSW,205,0.0,0.0,68,0.00,,,0.00,Wunderground v.1.15,2013-01-24 22:54:00,
2013-01-24 17:00:00,65.5,55.1,30.17,WSW,243,0.0,0.0,69,0.00,,,0.00,Wunderground v.1.15,2013-01-24 23:00:00,
2013-01-24 17:09:00,64.8,54.8,30.17,SW,233,0.0,0.0,70,0.00,,,0.00,Wunderground v.1.15,2013-01-24 23:09:00,
2013-01-24 17:15:00,64.5,54.9,30.18,SW,224,0.0,0.0,71,0.00,,,0.00,Wunderground v.1.15,2013-01-24 23:15:00,
2013-01-24 17:24:00,63.9,54.7,30.18,SW,224,0.0,0.0,72,0.00,,,0.00,Wunderground v.1.15,2013-01-24 23:24:00,
2013-01-24 17:30:00,63.4,54.6,30.18,SW,224,0.0,0.0,73,0.00,,,0.00,Wunderground v.1.15,2013-01-24 23:30:00,
2013-01-24 17:39:00,62.6,54.6,30.18,SSW,202,0.0,0.0,75,0.00,,,0.00,Wunderground v.1.15,2013-01-24 23:39:00,
2013-01-24 17:50:00,61.8,54.2,30.18,SW,233,0.0,0.0,76,0.00,,,0.00,Wunderground v.1.15,2013-01-24 23:50:00,
2013-01-24 18:00:00,61.2,54.3,30.19,SW,230,0.0,0.0,78,0.00,,,0.00,Wunderground v.1.15,2013-01-25 00:00:00,
2013-01-24 18:09:00,60.5,54.0,30.19,SW,230,0.0,0.0,79,0.00,,,0.00,Wunderground v.1.15,2013-01-25 00:09:00,
2013-01-24 18:15:00,60.1,53.6,30.19,SW,230,0.0,0.0,79,0.00,,,0.00,Wunderground v.1.15,2013-01-25 00:15:00,
2013-01-24 18:24:00,59.5,53.3,30.19,SW,230,0.0,0.0,80,0.00,,,0.00,Wunderground v.1.15,2013-01-25 00:24:00,
2013-01-24 18:30:00,59.2,53.4,30.20,SW,230,0.0,0.0,81,0.00,,,0.00,Wunderground v.1.15,2013-01-25 00:30:00,
2013-01-24 18:39:00,58.7,53.2,30.20,SW,230,0.0,0.0,82,0.00,,,0.00,Wunderground v.1.15,2013-01-25 00:39:00,
2013-01-24 18:45:00,58.6,53.5,30.20,SW,230,0.0,0.0,83,0.00,,,0.00,Wunderground v.1.15,2013-01-25 00:45:00,
2013-01-24 18:55:00,58.7,53.5,30.20,SW,230,0.0,0.0,83,0.00,,,0.00,Wunderground v.1.15,2013-01-25 00:55:00,
2013-01-24 19:04:00,58.7,53.9,30.20,SW,230,0.0,0.0,84,0.00,,,0.00,Wunderground v.1.15,2013-01-25 01:04:00,
2013-01-24 19:10:00,58.9,54.1,30.20,SW,230,0.0,0.0,84,0.00,,,0.00,Wunderground v.1.15,2013-01-25 01:10:00,
2013-01-24 19:15:00,58.9,54.1,30.20,SW,230,0.0,0.0,84,0.00,,,0.00,Wunderground v.1.15,2013-01-25 01:15:00,
2013-01-24 19:25:00,58.9,54.1,30.20,SW,230,0.0,0.0,84,0.00,,,0.00,Wunderground v.1.15,2013-01-25 01:25:00,
2013-01-24 19:30:00,58.9,54.1,30.21,SW,230,0.0,0.0,84,0.00,,,0.00,Wunderground v.1.15,2013-01-25 01:30:00,
2013-01-24 19:39:00,58.7,53.9,30.21,SW,230,0.0,0.0,84,0.00,,,0.00,Wunderground v.1.15,2013-01-25 01:39:00,
2013-01-24 19:45:00,58.7,53.9,30.21,SW,230,0.0,0.0,84,0.00,,,0.00,Wunderground v.1.15,2013-01-25 01:45:00,
2013-01-24 19:54:00,58.6,54.1,30.21,SW,230,0.0,0.0,85,0.00,,,0.00,Wunderground v.1.15,2013-01-25 01:54:00,
2013-01-24 20:00:00,58.7,54.2,30.20,SW,230,0.0,0.0,85,0.00,,,0.00,Wunderground v.1.15,2013-01-25 02:00:00,
2013-01-24 20:09:00,58.6,54.1,30.20,SW,230,0.0,0.0,85,0.00,,,0.00,Wunderground v.1.15,2013-01-25 02:09:00,
2013-01-24 20:15:00,58.4,53.9,30.20,SW,233,0.0,0.0,85,0.00,,,0.00,Wunderground v.1.15,2013-01-25 02:15:00,
2013-01-24 20:24:00,58.4,53.9,30.20,SW,233,0.0,0.0,85,0.00,,,0.00,Wunderground v.1.15,2013-01-25 02:24:00,
2013-01-24 20:30:00,58.4,53.9,30.20,SW,233,0.0,0.0,85,0.00,,,0.00,Wunderground v.1.15,2013-01-25 02:30:00,
2013-01-24 20:39:00,58.4,53.9,30.20,SW,233,0.0,0.0,85,0.00,,,0.00,Wunderground v.1.15,2013-01-25 02:39:00,
2013-01-24 20:45:00,58.4,53.9,30.20,SW,233,0.0,0.0,85,0.00,,,0.00,Wunderground v.1.15,2013-01-25 02:45:00,
2013-01-24 20:54:00,58.1,53.6,30.20,SW,233,0.0,0.0,85,0.00,,,0.00,Wunderground v.1.15,2013-01-25 02:54:00,
2013-01-24 21:00:00,58.0,53.5,30.20,SW,233,0.0,0.0,85,0.00,,,0.00,Wunderground v.1.15,2013-01-25 03:00:00,
2013-01-24 21:10:00,57.5,53.3,30.20,SW,233,0.0,0.0,86,0.00,,,0.00,Wunderground v.1.15,2013-01-25 03:10:00,
2013-01-24 21:20:00,56.7,52.6,30.20,SW,233,0.0,0.0,86,0.00,,,0.00,Wunderground v.1.15,2013-01-25 03:20:00,
2013-01-24 21:25:00,56.5,52.7,30.20,SW,233,0.0,0.0,87,0.00,,,0.00,Wunderground v.1.15,2013-01-25 03:25:00,
2013-01-24 21:30:00,56.2,52.4,30.21,SW,233,0.0,0.0,87,0.00,,,0.00,Wunderground v.1.15,2013-01-25 03:30:00,
2013-01-24 21:39:00,55.9,52.4,30.21,SW,233,0.0,0.0,88,0.00,,,0.00,Wunderground v.1.15,2013-01-25 03:39:00,
2013-01-24 21:49:00,56.2,53.0,30.21,SW,233,0.0,0.0,89,0.00,,,0.00,Wunderground v.1.15,2013-01-25 03:49:00,
2013-01-24 21:54:00,56.6,53.4,30.21,SW,233,0.0,0.0,89,0.00,,,0.00,Wunderground v.1.15,2013-01-25 03:54:00,
2013-01-24 22:00:00,56.7,53.5,30.21,SW,233,0.0,0.0,89,0.00,,,0.00,Wunderground v.1.15,2013-01-25 04:00:00,
2013-01-24 22:09:00,56.6,53.4,30.21,SW,233,0.0,0.0,89,0.00,,,0.00,Wunderground v.1.15,2013-01-25 04:09:00,
2013-01-24 22:15:00,56.5,53.3,30.21,SW,233,0.0,0.0,89,0.00,,,0.00,Wunderground v.1.15,2013-01-25 04:15:00,
2013-01-24 22:25:00,56.2,53.0,30.21,SW,233,0.0,0.0,89,0.00,,,0.00,Wunderground v.1.15,2013-01-25 04:25:00,
2013-01-24 22:30:00,55.9,52.7,30.21,SW,233,0.0,0.0,89,0.00,,,0.00,Wunderground v.1.15,2013-01-25 04:30:00,
2013-01-24 22:40:00,55.1,51.9,30.21,SW,233,0.0,0.0,89,0.00,,,0.00,Wunderground v.1.15,2013-01-25 04:40:00,
2013-01-24 22:45:00,54.8,51.9,30.20,SW,233,0.0,0.0,90,0.00,,,0.00,Wunderground v.1.15,2013-01-25 04:45:00,
2013-01-24 22:55:00,54.5,51.6,30.20,SW,233,0.0,0.0,90,0.00,,,0.00,Wunderground v.1.15,2013-01-25 04:55:00,
2013-01-24 23:04:00,54.8,52.2,30.20,SSW,212,0.0,0.0,91,0.00,,,0.00,Wunderground v.1.15,2013-01-25 05:04:00,
2013-01-24 23:09:00,55.0,52.4,30.20,SSW,212,0.0,0.0,91,0.00,,,0.00,Wunderground v.1.15,2013-01-25 05:09:00,
2013-01-24 23:15:00,55.0,52.7,30.19,SSW,212,0.0,0.0,92,0.00,,,0.00,Wunderground v.1.15,2013-01-25 05:15:00,